GGSE 3

operational
NORAD ID: 1292 Int'l Des: 1965-016 Owner: NRO/NRL Country: US
LEOCIRCULAR

About GGSE 3

Description loading...

Live Position

Loading 3D Globe...

Upcoming Passes

Altitude History

Altitude vs Time

uPlot chart will show altitude changes over time

Two-Line Element Set

1 01292U 65016C 25339.31714231 .00000254 00000-0 20301-3 0 9996
2 01292 70.0781 8.4237 0021217 214.4452 145.5283 14.01510219 97400
Epoch: Dec 5, 2025 • Age: 18 hours

Current Status

Altitude 906.6 km
Velocity 7.40 km/s
Sub-Earth Point 68.81°N, 25.25°E
Type other

Large Constellations

Loading constellations...